Find Local Weather

World > North America > United States > Florida

Jacksonville, Florida Regional Weather

Lat: 30.33N, Lon: 81.66W
Wx Zone: FLZ025
Feedback
Expires:201808172300;;223386
ASUS42 KTBW 172218
RWRFL 
FLORIDA REGIONAL WEATHER ROUNDUP
NATIONAL WEATHER SERVICE TAMPA BAY RUSKIN FL
600 PM EDT FRI AUG 17 2018

NOTE: "FAIR" INDICATES FEW OR NO CLOUDS BELOW 12,000 FEET WITH NO
SIGNIFICANT WEATHER AND/OR OBSTRUCTIONS TO VISIBILITY.


FLZ011-016>038-118-127-128-134-139-239-172300-
NORTH FLORIDA
  
CITY           SKY/WX    TMP DP  RH WIND       PRES   REMARKS
MARIANNA       FAIR      80  75  84 SW6       30.12R                  
TALLAHASSEE    PTSUNNY   83  73  72 NW3       30.14R                  
PERRY          FAIR      90  74  59 SW10      30.14R HX  99           
LIVE OAK       SUNNY     86  75  70 VRB6      30.13R HX  95           
CROSS CITY     FAIR      80  73  79 E5        30.15S                  
LAKE CITY      TSTM      70  70 100 SE3       30.17F                  
GAINESVILLE    FAIR      77  70  79 CALM      30.17F                  
WILLISTON        N/A    N/A N/A N/A MISG        N/A                   
PALATKA        FAIR      81  77  89 E7        30.16R                  
MAYPORT NAS    FAIR      88  76  67 S12G22    30.14R HX  99           
JACKSONVILLE   PTSUNNY   79  75  87 W3        30.14R THUNDER          
JAX NAS        TSTM      80  75  84 S5        30.15R                  
JAX CECIL      MOSUNNY   77  77 100 CALM      30.15R                  
FERNANDINA BEA FAIR      85  75  72 S10       30.13R                  
ST AUGUSTINE   FAIR      83  75  77 S9        30.17R                  
PALM COAST     SUNNY     84  72  65 SE8       30.15R                  

STATION/POSITION SKY/WX   TEMP    WIND        PRES    WAVE   SWELL
                          AIR SEA DIR/SP/G            HT/PER HT/PER
                          (F)     (DEG/KT/KT) (MB)    (FT/S) (FT/S)
SHELL POINT      NOT AVBL
KEATON BEACH               86     220/  8/ 11 1020.8R
CEDAR KEY                  85     290/  4/  5 1020.7S
FERNANDINA                 87 84  150/  9/ 14 1021.1R
30.7N   81.3W                 82                N/A     3/ 9
MAYPORT                    86 81  160/  8/ 12 1020.8R
31.4N   80.9W              83 84  160/ 14/ 16 1020.0S   2/ 9   2/ 9
ST AUGUSTINE               81 81  170/ 13/ 14 1021.2R

$$

SKY/WX - Weather  TMP - Temperature  DP - Dewpoint  RH - Relative Humidity
WIND - Wind Direction/Speed PRES - Barometric Pressure